Probability
10 48 77 84 87 90 90 87 97 90 90 94 94 97 97 97 97 94 97 94 90 84 74 58 68 65 58 55 58 68 71 68 77 81 81 90 90 94 90 90 94 84 94
29 55 81 90 87 90 90 90 87 90 90 94 94 94 94 94 94 94 94 90 87 74 68 61 55 58 48 45 48 55 55 71 74 74 74 81 84 87 87 84 87 97 97
39 58 71 90 90 87 90 90 90 94 94 94 94 97 97 97 97 94 87 84 74 65 61 55 52 58 48 52 52 52 48 61 71 68 71 65 68 84 87 87 84 94 97
58 71 71 94 94 90 90 90 87 90 90 94 90 87 90 84 81 81 74 65 68 65 52 48 48 45 45 48 52 52 52 52 52 68 61 35 42 84 81 84 87 90 97
58 84 87 94 94 94 94 90 87 87 87 90 90 81 77 81 77 77 74 71 65 55 52 48 48 48 45 45 48 52 55 61 65 61 42 39 65 84 81 81 84 87 97
58 71 87 94 94 94 94 90 87 87 87 84 81 81 81 74 71 68 68 58 55 55 55 52 52 48 48 48 48 48 55 65 58 32 23 39 61 87 81 84 84 87 94
52 55 84 94 94 94 94 90 90 87 84 84 81 77 74 71 71 71 65 58 55 55 52 48 48 48 55 52 48 48 48 42 52 35 35 39 61 77 77 84 84 87 94
55 61 84 90 94 94 94 94 87 84 81 77 74 74 74 71 65 61 55 55 55 55 48 52 45 45 52 52 52 58 65 52 35 23 26 35 55 68 74 81 87 97 97
55 65 77 84 90 90 87 84 81 77 74 74 77 74 65 61 61 61 58 58 55 52 52 45 42 42 45 42 55 61 61 65 45 39 19 42 71 71 74 81 84 90 90
61 71 68 71 77 74 74 81 77 77 74 71 68 58 55 55 58 55 58 55 48 39 32 39 42 42 39 48 48 48 58 58 26 29 35 52 68 61 71 77 71 74 87
65 71 71 71 77 65 61 68 68 68 68 65 65 55 52 42 42 52 42 45 45 39 39 39 39 35 35 42 42 39 52 35 13 29 52 52 52 61 68 74 74 74 74
61 68 71 74 74 61 58 68 65 65 65 61 58 52 52 48 42 35 39 42 39 39 39 39 35 39 32 29 35 32 39 23 26 32 39 55 48 48 61 68 68 65 58
58 65 68 77 71 68 74 68 65 65 61 58 48 52 58 45 42 42 39 39 45 39 35 39 39 35 29 32 26 23 16 16 19 23 29 42 42 42 52 52 65 55 58
55 65 58 68 74 68 74 71 68 65 58 55 58 52 52 55 48 45 45 39 39 35 29 35 35 32 32 32 23 19 16 19 19 23 48 35 45 45 48 52 55 58 55
58 65 65 61 68 74 74 65 52 52 48 55 52 52 52 55 52 42 45 45 39 39 35 39 32 35 42 35 29 26 23 19 16 10 29 42 42 39 39 48 48 48 52
58 55 58 61 61 65 65 61 55 48 55 45 48 55 55 52 55 48 52 52 42 42 29 32 29 39 35 35 32 32 26 19 19 23 16 32 39 39 39 39 45 45 45
61 55 61 58 58 61 52 52 48 42 45 45 45 48 55 52 55 55 48 45 45 39 35 35 29 32 32 32 29 35 32 32 29 32 19 29 32 35 35 42 35 42 35
65 65 65 48 52 58 58 52 39 35 39 42 39 42 48 48 48 48 39 39 39 32 29 29 29 26 32 32 26 23 23 32 32 29 23 26 32 26 29 35 32 35 32
68 65 61 58 52 48 48 52 42 45 35 32 32 39 35 35 32 35 32 39 32 29 23 23 23 23 26 26 19 26 23 23 29 19 29 23 19 26 32 32 35 29 29
61 65 61 55 48 45 42 45 45 39 32 29 32 23 26 26 26 29 26 29 29 29 29 29 29 26 26 19 13 13 19 23 16 19 16 19 23 23 23 19 26 26 26
58 65 58 48 52 52 42 42 42 45 29 26 23 23 19 16 19 23 16 23 23 26 23 23 23 23 19 19 19 13 10 13 10 26 16 16 19 23 23 23 19 19 23
61 58 58 52 48 48 42 42 39 32 29 29 29 23 19 16 23 13 23 23 19 19 13 16 19 19 19 13 16 6 3 3 10 0 19 16 19 19 16 10 13 16 13
61 61 52 52 48 48 45 39 29 29 23 26 29 19 16 16 16 16 13 19 19 19 16 16 19 16 16 13 6 10 19 6 3 3 10 10 23 16 13 10 10 13 16
58 58 55 55 45 45 35 29 29 23 23 23 26 16 16 16 16 16 16 13 13 16 16 16 16 16 16 10 6 10 19 19 3 6 6 10 6 13 13 3 3 6 10
55 52 52 48 39 32 29 35 32 19 16 13 19 19 16 16 16 16 13 13 13 19 16 13 16 13 13 13 6 10 6 13 3 6 3 3 6 6 10 13 10 6 3
52 48 45 42 39 32 29 29 26 23 19 16 13 16 13 16 16 16 16 13 13 16 13 16 13 13 16 13 13 6 6 10 10 0 0 0 0 0 0 10 3 6 3
Height
5904 5904 5904 5904 5903 5903 5903 5903 5903 5902 5902 5901 5900 5899 5898 5897 5896 5896 5895 5894 5893 5892 5891 5891 5890 5890 5889 5888 5887 5887 5886 5886 5886 5885 5885 5885 5885 5884 5884 5884 5884 5884 5884
5904 5903 5903 5903 5902 5902 5902 5902 5901 5901 5900 5899 5898 5897 5896 5895 5894 5894 5893 5892 5891 5890 5890 5889 5888 5887 5887 5886 5885 5884 5884 5883 5883 5883 5883 5883 5882 5882 5882 5882 5882 5882 5882
5902 5902 5901 5901 5901 5901 5900 5900 5900 5899 5898 5897 5896 5895 5894 5893 5892 5891 5891 5890 5889 5888 5887 5887 5886 5885 5884 5883 5883 5882 5881 5881 5880 5880 5880 5880 5880 5880 5880 5879 5879 5879 5879
5901 5901 5900 5900 5900 5899 5899 5898 5898 5897 5896 5895 5894 5893 5892 5891 5890 5889 5888 5887 5886 5886 5885 5884 5883 5882 5881 5880 5880 5879 5879 5878 5878 5877 5877 5877 5877 5877 5877 5877 5877 5876 5877
5899 5899 5899 5898 5898 5898 5897 5896 5896 5895 5894 5893 5892 5891 5890 5889 5888 5887 5886 5885 5884 5883 5882 5881 5880 5879 5878 5878 5877 5876 5876 5875 5875 5874 5874 5873 5873 5874 5874 5874 5874 5874 5874
5897 5897 5897 5896 5896 5895 5895 5894 5893 5892 5891 5890 5889 5888 5887 5886 5885 5884 5883 5882 5881 5880 5879 5878 5877 5876 5875 5874 5874 5873 5873 5872 5871 5871 5870 5870 5870 5870 5870 5870 5870 5870 5871
5895 5894 5894 5894 5894 5893 5892 5891 5891 5890 5889 5888 5887 5885 5884 5883 5882 5881 5880 5879 5878 5877 5876 5875 5874 5873 5872 5871 5870 5870 5869 5868 5868 5867 5867 5867 5867 5867 5867 5867 5867 5867 5867
5893 5892 5892 5891 5891 5890 5889 5889 5888 5887 5886 5885 5884 5883 5881 5880 5879 5878 5877 5875 5874 5873 5872 5871 5870 5869 5868 5867 5866 5866 5865 5864 5864 5863 5863 5863 5863 5863 5863 5863 5863 5863 5864
5890 5890 5889 5888 5888 5887 5886 5886 5885 5884 5883 5881 5880 5879 5878 5876 5875 5874 5873 5871 5870 5869 5868 5867 5866 5865 5864 5863 5862 5861 5860 5859 5859 5859 5858 5858 5858 5858 5858 5858 5859 5859 5859
5888 5887 5886 5885 5884 5884 5883 5883 5882 5881 5879 5878 5877 5875 5874 5872 5871 5870 5868 5867 5866 5865 5864 5862 5861 5860 5859 5858 5857 5856 5856 5855 5854 5854 5853 5853 5853 5853 5853 5853 5854 5854 5855
5885 5884 5883 5882 5881 5881 5880 5879 5878 5877 5875 5874 5873 5871 5870 5868 5866 5865 5864 5863 5862 5860 5859 5858 5857 5855 5854 5853 5852 5851 5850 5850 5849 5848 5848 5848 5848 5848 5848 5848 5848 5849 5850
5882 5881 5880 5879 5879 5878 5877 5876 5874 5873 5871 5870 5868 5867 5865 5864 5862 5860 5859 5858 5857 5855 5854 5853 5851 5850 5849 5848 5847 5846 5845 5844 5844 5843 5843 5843 5842 5842 5842 5842 5843 5843 5844
5879 5878 5877 5876 5875 5874 5873 5871 5870 5868 5867 5865 5864 5862 5861 5859 5857 5856 5854 5853 5852 5850 5849 5848 5846 5845 5844 5842 5842 5841 5840 5839 5838 5837 5836 5837 5836 5836 5836 5836 5837 5837 5838
5875 5874 5873 5872 5871 5869 5868 5867 5865 5864 5862 5861 5859 5858 5856 5854 5853 5851 5850 5848 5846 5845 5843 5842 5840 5839 5838 5836 5835 5834 5833 5832 5832 5831 5830 5830 5830 5830 5830 5830 5830 5831 5831
5872 5870 5869 5867 5866 5865 5864 5862 5861 5859 5858 5856 5855 5853 5851 5849 5848 5846 5845 5843 5841 5839 5837 5836 5834 5833 5831 5830 5829 5828 5827 5826 5825 5824 5824 5823 5823 5823 5823 5823 5823 5824 5824
5868 5866 5865 5863 5861 5860 5859 5857 5856 5854 5853 5851 5850 5848 5846 5845 5843 5841 5839 5837 5835 5833 5831 5829 5828 5826 5824 5823 5821 5820 5819 5819 5818 5817 5816 5816 5815 5815 5815 5815 5815 5816 5817
5864 5862 5861 5859 5857 5856 5854 5852 5851 5849 5848 5846 5844 5843 5841 5839 5837 5835 5833 5831 5829 5827 5825 5823 5821 5819 5817 5816 5814 5812 5811 5811 5810 5809 5808 5808 5807 5806 5807 5807 5807 5808 5809
5860 5858 5856 5855 5853 5851 5849 5847 5845 5844 5842 5840 5839 5837 5835 5833 5831 5829 5827 5825 5823 5820 5818 5816 5814 5812 5810 5808 5806 5805 5803 5803 5802 5801 5800 5799 5798 5798 5798 5798 5799 5800 5800
5856 5854 5852 5850 5849 5847 5844 5842 5840 5838 5836 5834 5833 5831 5829 5827 5825 5823 5821 5818 5816 5814 5811 5809 5807 5805 5803 5801 5799 5797 5796 5795 5794 5792 5791 5790 5790 5789 5789 5789 5790 5791 5792
5851 5850 5848 5846 5844 5841 5839 5837 5835 5833 5831 5828 5827 5825 5823 5821 5819 5816 5814 5812 5809 5807 5804 5802 5800 5797 5795 5793 5791 5789 5788 5786 5785 5783 5783 5782 5781 5780 5780 5780 5781 5782 5783
5847 5845 5843 5841 5839 5836 5834 5831 5829 5827 5825 5823 5821 5818 5816 5814 5812 5810 5808 5805 5802 5800 5797 5795 5792 5790 5788 5785 5783 5781 5780 5778 5776 5775 5774 5773 5772 5772 5771 5771 5772 5772 5773
5842 5840 5838 5836 5833 5831 5828 5826 5824 5821 5819 5817 5814 5812 5810 5807 5805 5803 5800 5798 5795 5793 5790 5788 5785 5782 5780 5777 5775 5773 5772 5771 5768 5767 5765 5764 5764 5763 5763 5762 5763 5764 5764
5837 5835 5833 5830 5828 5825 5823 5821 5818 5816 5814 5811 5808 5806 5803 5801 5798 5796 5793 5791 5788 5786 5783 5780 5777 5774 5772 5770 5767 5766 5764 5763 5761 5759 5757 5756 5755 5755 5755 5754 5755 5755 5756
5831 5829 5827 5825 5822 5820 5818 5815 5813 5810 5808 5805 5802 5799 5797 5794 5791 5789 5786 5784 5781 5778 5775 5772 5769 5766 5763 5761 5760 5758 5756 5755 5753 5752 5750 5748 5747 5747 5747 5747 5747 5747 5748
5826 5824 5822 5820 5818 5815 5813 5810 5808 5805 5802 5799 5796 5793 5790 5787 5785 5782 5780 5777 5774 5771 5768 5765 5761 5758 5755 5754 5752 5750 5749 5747 5745 5744 5743 5742 5741 5740 5740 5740 5740 5740 5740
5821 5819 5817 5815 5813 5810 5808 5806 5803 5800 5797 5793 5790 5787 5784 5781 5778 5775 5773 5770 5767 5764 5761 5757 5754 5750 5748 5746 5744 5743 5741 5740 5738 5737 5736 5735 5734 5734 5734 5733 5733 5733 5733
Wind_Speed
2 2 1 1 1 3 4 5 6 6 6 6 6 6 6 6 7 7 7 8 8 8 9 9 9 10 10 10 10 10 10 10 10 10 10 10 10 10 10 10 10 11 11
2 1 1 2 2 3 5 6 7 7 7 7 7 7 7 8 8 8 8 9 9 10 10 10 11 11 11 11 11 11 11 11 11 11 11 11 11 11 11 11 11 12 12
3 2 2 3 3 4 5 6 7 8 8 9 9 9 9 9 9 10 10 10 11 11 11 12 12 13 13 13 13 12 12 12 11 11 11 12 12 12 12 12 12 12 13
5 4 4 5 5 6 7 8 9 9 9 10 10 10 10 10 11 11 11 12 12 13 13 13 14 14 14 14 13 13 13 12 12 12 12 13 13 13 13 13 13 13 13
7 7 7 7 7 8 9 9 10 10 10 11 11 11 11 12 12 12 13 13 14 14 15 15 15 15 15 14 14 14 13 13 14 14 13 14 14 14 15 15 14 14 14
9 9 9 9 9 9 10 11 11 11 12 12 12 12 13 13 13 14 14 14 15 15 15 16 16 15 15 15 15 14 15 15 16 16 15 15 15 16 16 16 16 16 16
11 11 11 11 11 11 12 13 13 13 14 14 14 14 15 15 15 15 15 16 16 17 17 17 17 17 16 16 16 16 16 17 17 17 17 18 18 18 17 17 17 18 18
11 11 11 12 12 13 14 15 15 15 16 16 16 16 16 16 16 17 17 17 18 18 17 18 18 18 18 17 17 17 18 18 18 18 19 19 19 19 19 19 19 19 19
13 14 13 14 14 14 15 16 17 17 16 16 17 17 17 18 18 18 18 19 19 19 19 19 19 20 19 19 19 19 19 19 19 19 20 21 21 21 21 20 20 20 20
14 14 15 15 16 16 17 17 17 17 17 17 17 18 18 19 19 19 20 20 20 21 21 22 22 21 21 21 21 20 20 21 21 21 21 22 22 22 22 22 21 21 21
14 16 17 17 17 17 18 19 19 19 19 19 19 19 19 20 20 21 22 22 23 23 23 23 23 23 22 22 22 22 22 22 23 23 22 23 23 23 24 24 23 22 22
16 16 17 18 18 18 19 20 20 20 20 21 20 21 21 21 21 22 23 23 24 24 24 24 24 24 23 23 23 23 23 24 24 24 24 24 24 24 25 25 25 24 24
17 17 18 18 19 19 20 21 22 22 22 22 23 23 23 23 23 23 24 24 25 25 25 25 26 26 25 25 25 24 25 25 25 25 26 25 26 26 26 25 26 26 25
17 18 18 19 20 21 21 23 23 24 24 24 24 24 24 25 25 25 25 25 26 26 26 27 27 27 27 27 26 26 26 26 26 27 27 27 27 27 27 27 27 27 27
18 19 20 20 21 22 23 24 25 25 25 25 26 26 25 25 26 26 26 26 27 27 27 28 28 28 29 29 28 28 27 28 28 29 29 28 29 29 29 28 29 28 28
19 20 21 21 22 24 24 24 25 25 25 26 27 26 26 27 27 27 27 27 28 28 29 29 29 29 29 29 29 29 28 29 29 30 30 31 30 30 30 30 30 30 30
20 21 22 22 23 24 25 25 25 25 26 27 26 26 26 27 28 29 28 28 29 29 29 29 29 28 28 29 30 30 29 29 29 30 31 32 31 31 31 31 31 31 31
21 21 22 22 24 25 26 26 26 26 25 26 25 26 26 27 27 29 29 29 29 30 30 29 29 29 29 29 30 30 30 30 30 30 31 31 31 31 31 32 32 33 33
22 22 22 23 24 25 26 25 26 26 26 26 26 26 27 27 28 29 30 30 29 30 30 30 30 31 30 30 30 30 30 30 30 30 30 31 31 31 31 32 32 33 34
23 23 24 25 26 26 25 26 26 26 26 26 26 27 28 29 29 29 29 29 29 29 30 30 31 30 30 30 30 31 31 30 30 30 31 31 32 32 32 32 33 33 34
22 23 24 26 26 26 27 28 28 26 26 26 28 28 28 28 29 29 29 29 30 30 30 30 30 30 30 30 30 30 30 30 30 31 31 31 31 32 31 32 33 33 33
23 24 24 26 26 26 26 27 27 25 26 28 29 28 28 29 29 29 29 29 29 30 30 30 30 31 31 30 29 29 29 29 29 30 30 29 30 30 29 30 31 32 32
24 25 25 26 25 25 25 26 26 26 27 27 29 28 29 28 28 29 28 29 30 30 30 30 31 31 30 30 29 29 28 28 28 28 29 28 29 29 28 28 29 30 31
23 24 25 25 25 24 25 26 27 27 27 28 28 29 29 29 29 28 28 29 29 29 29 29 29 30 30 29 29 28 28 28 28 27 27 27 27 27 27 27 28 29 30
22 24 24 24 23 24 25 26 27 27 27 28 29 29 29 28 28 28 28 28 28 28 28 28 28 28 28 28 28 27 28 27 27 27 26 25 26 26 26 26 27 28 28
21 22 23 23 23 24 25 26 26 26 27 28 29 29 28 27 26 26 26 27 27 27 27 27 27 27 27 26 26 27 26 26 26 26 25 24 24 25 25 24 23 24 25
Wind_Direction
174 166 175 209 254 276 283 283 283 284 287 293 301 308 311 312 313 314 315 317 317 316 316 314 311 307 302 297 294 290 286 282 278 274 273 271 270 268 261 261 258 256 256
219 214 243 262 270 284 287 288 288 291 293 296 301 306 308 309 311 312 312 313 312 311 310 308 304 301 297 293 290 288 285 281 276 273 271 270 270 268 264 261 258 255 253
253 257 277 277 281 289 291 292 291 293 296 299 301 303 305 307 309 309 308 309 307 306 305 303 301 299 297 293 288 285 284 281 276 272 272 270 268 267 264 262 260 257 253
266 277 287 290 291 294 295 293 295 295 296 298 300 302 305 305 306 305 304 303 302 301 301 300 299 297 294 292 289 286 283 278 276 274 273 272 268 265 263 263 262 258 254
266 274 281 288 290 294 294 294 295 296 297 298 298 298 300 300 300 300 300 299 298 297 297 297 295 295 293 290 288 285 281 277 275 274 273 272 268 265 264 263 260 257 256
260 267 277 283 286 291 293 291 292 294 295 296 296 296 297 297 297 297 297 297 295 294 294 293 293 292 292 289 285 283 281 278 276 274 272 271 268 267 266 264 261 258 257
270 268 274 281 283 287 289 288 288 289 292 293 294 294 295 295 295 294 294 294 294 293 292 290 289 289 288 287 283 280 279 277 276 274 272 271 270 268 266 265 264 261 259
276 273 275 280 282 286 287 286 286 287 289 290 292 293 294 294 294 293 293 294 294 293 292 290 289 289 288 287 284 281 279 278 276 273 270 270 269 268 265 265 265 262 260
279 278 276 280 282 283 283 284 285 285 287 288 290 291 293 293 293 293 292 292 292 292 291 291 290 288 287 286 284 282 279 278 276 275 273 270 269 267 265 264 264 262 260
278 280 278 277 279 281 282 284 284 285 286 286 287 288 290 291 292 291 291 291 291 292 291 290 290 288 287 286 284 282 280 279 276 275 274 272 270 267 265 264 264 263 259
282 281 277 275 279 281 282 282 282 283 284 285 285 286 288 289 289 291 291 291 291 290 290 290 291 289 287 286 283 282 281 280 277 275 274 272 270 267 266 264 263 263 258
281 280 281 279 279 280 282 282 281 280 281 282 283 284 286 289 290 291 290 290 290 290 289 289 289 289 286 285 283 281 280 279 278 275 273 273 271 269 268 265 263 262 261
282 281 281 281 280 279 281 282 282 281 280 280 281 283 286 288 289 291 292 291 291 290 289 289 288 287 285 284 283 281 280 279 278 275 274 272 271 270 268 266 265 263 261
283 285 285 283 282 280 280 282 282 281 280 280 280 282 285 287 288 290 291 291 291 289 289 288 288 286 285 283 282 281 280 279 277 276 274 273 272 270 267 266 264 263 261
285 286 287 285 283 281 282 284 282 281 280 281 283 282 284 286 287 289 290 291 291 290 289 288 288 287 285 283 282 280 278 277 277 276 275 272 271 270 267 265 264 262 259
285 286 287 287 288 287 285 285 285 283 284 285 282 282 284 286 288 289 290 290 290 290 290 288 286 287 285 283 281 279 277 276 275 275 274 272 271 269 267 264 262 261 258
285 286 287 288 288 287 286 286 285 285 285 285 281 282 284 288 290 290 290 290 289 289 290 289 287 286 285 283 281 279 279 278 276 275 274 272 271 269 266 264 262 260 258
286 286 286 287 288 288 289 287 284 285 285 285 284 283 286 291 292 291 291 289 289 289 289 288 287 286 286 285 282 281 280 279 277 276 275 273 271 269 266 264 263 260 258
285 286 288 288 288 288 288 286 286 287 285 284 285 286 288 291 292 292 291 290 289 289 289 287 287 285 285 286 285 283 282 281 280 278 275 273 271 270 268 265 264 261 258
286 285 286 286 288 289 288 289 290 291 288 287 287 289 290 290 290 292 292 291 290 290 289 288 287 286 285 286 285 284 282 281 281 279 277 274 271 269 268 265 263 261 258
287 286 286 287 288 289 289 291 292 291 290 289 290 290 289 289 289 290 292 291 290 290 291 290 289 288 287 286 285 283 282 282 283 281 279 276 272 270 267 264 263 261 258
286 287 288 288 289 290 290 293 294 293 292 291 291 291 290 289 290 292 292 291 291 291 292 291 290 288 287 286 286 283 282 283 283 283 281 278 274 271 268 264 262 260 258
285 286 287 289 289 289 289 291 292 294 293 292 292 295 294 291 291 292 292 293 292 291 292 292 290 288 287 285 285 285 284 283 284 282 280 280 276 272 269 265 262 260 259
285 287 289 290 291 291 290 291 295 297 295 295 294 297 296 292 292 293 293 294 294 294 293 293 293 291 286 284 284 285 285 285 284 282 280 280 277 274 268 267 263 262 261
286 288 291 291 292 293 293 293 295 296 296 298 297 297 298 295 294 294 294 293 293 293 293 293 293 290 287 285 283 285 285 285 285 284 282 279 277 273 269 268 265 264 262
286 289 292 292 293 294 294 294 294 295 296 299 300 300 302 298 296 295 294 294 296 297 297 296 295 291 287 285 285 284 284 284 284 284 283 279 275 272 269 269 268 266 264